Temperature
8 7 7 7 7 7 7 7 7 6 6 6 6 6 6 6 6 6 6 6 6 6 6 5 5 5 5 5 5 5 4 4 4 4 4 4 4 4 4 4 4 4 4
7 7 7 7 7 6 6 6 6 6 6 6 6 5 5 5 5 5 5 5 5 5 5 5 5 5 5 4 4 4 4 4 3 3 3 3 3 3 3 3 3 3 3
7 7 7 6 6 6 6 6 6 6 5 5 5 5 5 5 5 5 5 5 4 4 4 4 4 4 4 4 4 4 3 3 3 2 3 3 3 3 3 3 3 3 3
6 6 6 6 6 6 6 5 5 5 5 5 5 5 4 4 4 4 4 4 4 4 4 4 4 3 3 3 3 3 3 2 2 2 2 2 2 2 2 2 2 2 2
6 6 6 5 5 5 5 5 5 5 5 4 4 4 4 4 4 4 3 3 3 3 3 3 3 3 3 3 2 2 2 2 2 1 1 1 1 1 2 2 1 1 1
5 5 5 5 5 5 4 4 4 4 4 4 4 4 4 3 3 3 3 3 2 2 2 2 2 2 2 2 2 2 2 1 1 1 1 1 1 1 1 1 1 0 0
5 4 4 4 4 4 4 4 4 4 3 3 3 3 3 3 3 3 2 2 2 2 2 2 2 2 1 1 1 1 1 1 1 1 0 0 0 0 -0 -0 -0 -0 -0
4 4 4 4 4 3 3 3 3 3 3 3 3 3 2 2 2 2 2 2 1 1 1 1 1 1 1 1 1 1 1 1 0 0 0 0 -0 -0 -0 -1 -1 -1 -1
4 4 4 3 3 3 3 3 3 2 2 2 2 2 2 2 2 2 1 1 1 1 1 1 1 1 1 0 0 0 -0 -0 -0 -0 -0 -0 -0 -0 -1 -1 -1 -1 -1
3 3 3 3 3 3 2 2 2 2 2 2 2 2 2 1 1 1 1 0 0 0 0 0 0 0 0 -0 -1 -1 -1 -1 -1 -1 -1 -1 -1 -1 -1 -1 -1 -2 -2
3 3 3 2 2 2 2 2 1 1 1 1 1 1 1 1 1 1 0 0 -0 -0 -0 -0 -0 -0 -0 -1 -1 -1 -1 -1 -1 -1 -1 -1 -1 -1 -1 -2 -2 -2 -2
2 2 2 2 2 1 1 1 1 1 1 0 0 0 0 0 0 0 0 -0 -0 -1 -1 -1 -1 -1 -1 -1 -1 -1 -1 -2 -2 -2 -2 -2 -2 -2 -2 -2 -2 -2 -3
2 1 1 1 1 1 1 1 0 0 -0 -0 -0 -0 -0 0 -0 -0 -0 -1 -1 -1 -1 -1 -1 -1 -2 -2 -2 -2 -2 -2 -2 -2 -2 -2 -2 -2 -2 -3 -3 -3 -3
1 1 1 1 0 0 0 0 -0 -0 -1 -1 -1 -1 -1 -1 -1 -1 -1 -1 -1 -1 -2 -2 -2 -2 -2 -2 -2 -2 -2 -2 -2 -2 -3 -3 -3 -3 -3 -3 -3 -3 -4
0 -0 -0 -0 -0 -1 -1 -1 -1 -1 -1 -1 -1 -1 -1 -1 -1 -1 -1 -2 -2 -2 -2 -3 -3 -3 -3 -3 -3 -3 -3 -3 -3 -3 -3 -3 -3 -3 -4 -4 -4 -4 -4
-1 -1 -1 -1 -1 -1 -1 -1 -1 -1 -1 -1 -2 -2 -2 -2 -2 -2 -2 -2 -2 -3 -3 -3 -3 -3 -3 -3 -3 -3 -3 -3 -3 -3 -4 -4 -4 -4 -4 -4 -5 -5 -5
-1 -1 -1 -2 -2 -2 -2 -2 -2 -2 -2 -2 -2 -2 -2 -2 -2 -2 -2 -3 -3 -3 -3 -3 -3 -3 -4 -4 -4 -4 -4 -4 -4 -4 -4 -4 -4 -4 -5 -5 -5 -5 -5
-2 -2 -2 -2 -2 -3 -3 -3 -3 -3 -3 -3 -2 -2 -3 -3 -3 -3 -3 -3 -3 -4 -4 -4 -4 -4 -4 -4 -4 -4 -4 -4 -4 -4 -4 -5 -5 -5 -5 -5 -5 -6 -6
-2 -2 -3 -3 -3 -3 -3 -3 -3 -3 -3 -3 -3 -3 -3 -3 -3 -3 -4 -4 -4 -4 -4 -4 -4 -4 -4 -4 -4 -4 -4 -5 -5 -5 -5 -5 -5 -5 -5 -6 -6 -6 -6
-3 -3 -3 -3 -3 -4 -4 -4 -4 -4 -4 -4 -4 -4 -4 -4 -4 -4 -4 -4 -4 -4 -4 -4 -4 -5 -5 -5 -5 -5 -5 -5 -5 -5 -5 -5 -5 -6 -6 -6 -6 -6 -6
-3 -3 -4 -4 -4 -4 -4 -4 -4 -4 -4 -4 -4 -4 -4 -5 -4 -4 -5 -4 -4 -5 -5 -5 -5 -5 -5 -5 -5 -5 -5 -5 -5 -5 -5 -6 -6 -6 -6 -6 -6 -6 -6
-4 -4 -4 -4 -4 -4 -5 -5 -5 -5 -5 -5 -5 -5 -5 -5 -5 -5 -5 -5 -5 -5 -5 -5 -5 -5 -5 -5 -5 -5 -5 -5 -5 -5 -6 -6 -6 -6 -6 -6 -6 -6 -7
-4 -4 -5 -5 -5 -5 -5 -5 -5 -5 -5 -5 -5 -5 -5 -5 -5 -5 -5 -5 -5 -5 -5 -6 -6 -5 -5 -5 -6 -6 -6 -5 -6 -6 -6 -6 -6 -6 -6 -7 -7 -7 -7
-5 -5 -5 -5 -5 -5 -5 -5 -6 -6 -6 -6 -6 -6 -6 -6 -6 -6 -6 -6 -6 -6 -6 -6 -6 -6 -6 -6 -6 -6 -6 -6 -6 -6 -6 -6 -6 -7 -7 -7 -7 -7 -7
-5 -5 -5 -5 -5 -6 -6 -6 -6 -6 -6 -6 -6 -6 -6 -6 -6 -6 -6 -6 -6 -6 -6 -6 -6 -6 -6 -6 -6 -6 -6 -6 -6 -6 -6 -7 -7 -7 -7 -7 -7 -7 -7
-6 -6 -6 -6 -6 -6 -6 -6 -6 -6 -6 -6 -6 -6 -6 -6 -6 -6 -6 -6 -6 -6 -6 -6 -6 -6 -6 -6 -6 -6 -6 -6 -6 -7 -7 -7 -7 -7 -7 -7 -7 -7 -7
Wind_Speed
6 6 6 6 6 5 5 5 5 5 5 5 5 5 5 5 5 5 4 5 5 4 4 4 4 4 3 3 4 4 5 5 7 6 6 6 7 7 7 7 8 8 8
6 6 6 5 5 5 5 5 4 5 5 5 5 5 5 5 5 6 5 5 6 5 5 5 5 4 5 4 4 5 5 6 6 8 7 7 8 8 7 7 7 8 8
6 6 5 5 5 5 5 4 4 5 5 5 5 6 6 6 6 6 6 6 6 6 6 6 6 6 6 5 6 6 5 5 6 7 7 7 7 7 7 7 7 7 8
5 5 5 5 5 5 4 4 5 5 5 6 6 6 6 6 6 6 6 6 6 6 6 7 7 7 7 7 6 7 6 6 6 6 7 7 7 7 6 6 6 6 6
4 4 4 4 4 4 4 4 4 5 5 5 5 6 6 6 6 6 6 6 7 7 7 7 7 8 8 8 6 7 7 6 6 7 7 7 7 7 6 6 7 7 7
4 4 4 3 4 4 4 4 4 4 4 5 5 6 6 6 6 8 7 7 7 7 7 7 7 8 9 10 11 11 10 9 8 8 8 9 9 9 7 7 7 7 6
4 4 3 4 4 4 4 5 5 5 5 5 6 6 7 7 8 9 9 7 8 8 8 7 6 6 8 8 9 10 11 14 14 11 11 11 10 10 9 9 8 9 9
4 4 4 4 4 4 5 5 6 5 5 6 6 7 7 8 9 10 10 9 8 9 9 9 9 8 8 8 8 9 9 10 11 11 11 12 11 10 10 10 9 9 8
4 4 4 4 4 5 5 6 5 5 6 6 6 7 8 8 9 10 9 7 7 9 9 9 9 9 10 10 9 10 10 10 10 13 14 14 14 13 11 7 7 6 7
4 4 4 4 5 5 5 5 5 5 6 6 6 7 8 8 9 10 10 7 7 7 7 8 10 10 10 11 10 10 11 10 9 8 9 11 11 11 12 10 8 7 7
3 3 3 4 5 5 5 5 5 5 5 6 7 7 8 8 9 10 11 7 8 7 7 7 7 9 11 12 12 10 11 10 9 8 8 7 7 7 7 7 7 7 7
2 3 4 4 4 4 4 5 5 5 6 6 6 7 6 7 8 9 11 11 9 8 8 7 7 9 11 12 11 11 12 10 7 7 7 7 6 6 6 6 7 7 7
2 3 4 4 4 4 5 5 5 5 5 6 6 6 6 6 6 9 11 11 11 8 7 8 9 10 11 10 11 12 10 8 7 7 7 7 6 5 5 4 5 5 6
3 4 4 4 4 4 4 4 5 5 6 6 6 6 6 6 6 5 6 6 8 7 7 7 8 9 8 8 9 8 7 7 7 7 7 6 4 4 5 4 4 4 5
4 4 4 4 5 5 5 5 6 7 7 7 7 7 7 8 8 8 7 6 6 6 6 5 6 6 6 6 6 6 6 6 7 6 6 5 5 5 5 4 4 5 5
4 4 4 4 4 4 5 5 6 8 8 10 10 10 8 10 11 11 11 11 10 9 7 7 7 7 7 7 7 6 6 6 6 6 6 6 6 6 5 4 4 5 6
5 5 4 4 4 5 5 5 6 5 7 9 10 11 11 11 11 11 11 11 11 9 8 7 7 7 7 7 6 6 6 6 5 6 6 6 6 5 5 5 5 5 6
5 5 5 5 5 5 5 6 6 6 6 6 7 9 11 11 11 10 10 8 7 8 7 7 7 7 7 7 6 6 6 5 5 5 6 6 6 5 6 6 6 6 6
5 4 4 4 5 5 5 5 5 6 6 6 6 6 8 9 9 9 8 7 7 7 7 7 7 7 7 7 6 6 6 6 6 5 6 6 6 6 6 6 6 7 7
4 5 5 5 5 5 5 5 5 6 6 6 6 6 5 5 5 6 6 6 7 7 7 7 7 7 7 7 6 6 6 6 6 6 6 6 6 6 6 7 6 6 6
4 5 5 5 5 5 5 6 6 6 6 6 7 7 8 6 6 7 6 7 7 7 7 6 6 6 6 6 6 6 7 6 6 6 6 6 6 6 6 6 6 6 5
4 4 4 5 5 5 6 6 6 6 7 7 7 7 9 7 6 6 7 7 7 6 6 6 6 6 6 6 6 6 6 7 6 6 6 6 6 6 6 6 6 5 5
4 5 5 5 5 6 7 6 6 6 7 7 7 6 6 6 6 7 7 7 6 6 6 6 6 6 6 6 6 6 7 7 6 6 6 6 6 6 5 6 6 6 6
5 5 5 5 5 5 6 6 6 7 7 7 6 6 6 6 7 7 7 6 6 6 6 6 7 8 8 7 7 7 7 7 7 6 7 7 6 5 5 5 6 6 6
5 5 5 5 5 6 6 6 7 7 7 6 6 6 6 6 7 7 6 6 6 6 7 7 7 7 8 9 8 8 8 9 9 8 7 6 6 6 6 5 5 5 5
5 5 5 5 5 6 6 6 6 7 7 6 6 6 6 6 6 6 6 5 6 6 6 6 7 8 8 8 9 9 10 10 10 10 8 6 6 6 5 5 5 5 5
Wind_Direction
171 175 175 175 178 182 188 191 191 190 194 196 200 203 203 205 207 209 213 215 217 219 223 228 238 241 239 240 242 244 247 251 261 273 274 279 277 280 282 280 280 279 276
171 173 175 176 180 186 193 195 193 196 202 203 203 206 209 211 212 215 218 222 223 225 230 233 241 243 245 246 244 246 249 250 257 269 274 275 276 281 283 283 281 279 279
167 170 174 180 187 193 196 195 195 201 207 210 211 214 215 215 216 221 224 229 231 234 236 237 241 241 245 246 247 251 253 253 254 261 271 276 277 278 283 283 281 279 278
169 173 181 188 192 196 197 199 201 205 209 214 218 220 220 220 220 222 226 233 237 240 241 242 243 242 246 248 250 252 255 255 254 256 265 271 274 274 274 279 282 280 279
174 182 190 192 192 195 197 203 206 210 214 216 220 224 225 225 224 223 224 233 239 242 244 245 246 247 251 252 251 252 252 254 256 258 263 268 268 268 267 273 275 282 280
181 190 192 194 198 203 206 208 212 219 221 220 223 227 231 233 226 227 231 237 242 244 247 250 251 248 248 251 253 255 255 255 256 259 263 263 267 270 271 268 272 278 281
185 191 195 199 206 212 211 214 219 223 227 231 232 234 237 236 230 234 237 243 245 246 249 252 254 252 251 254 255 256 257 257 258 260 261 262 266 267 268 266 263 266 270
191 198 202 206 213 215 215 221 226 226 228 233 234 237 241 240 233 239 239 242 246 248 248 248 252 254 251 253 259 261 262 260 257 257 259 264 266 267 265 266 269 273 277
202 207 212 214 220 224 227 231 233 231 234 238 239 238 241 243 235 238 240 245 247 251 252 251 251 255 255 254 258 261 264 266 263 259 262 266 268 266 262 259 258 260 270
217 222 221 221 225 230 236 240 240 235 238 242 245 244 243 246 239 238 239 243 247 253 255 253 249 251 255 253 255 259 262 266 268 267 262 260 261 257 250 245 245 248 265
231 233 234 232 232 236 239 240 238 238 241 244 249 250 248 247 243 240 239 239 242 249 253 255 253 247 255 258 258 259 260 267 269 268 267 264 261 256 252 247 246 245 253
235 240 244 245 243 238 236 241 241 239 243 248 252 256 253 248 245 242 241 242 245 248 253 256 255 251 259 264 264 262 263 266 263 262 260 258 255 254 255 253 252 256 260
249 254 257 256 251 244 241 242 245 243 244 249 250 254 259 257 251 246 245 245 244 250 256 256 260 260 263 264 259 260 260 257 253 254 256 256 253 253 256 259 263 263 270
260 266 264 258 257 253 250 243 242 244 247 251 253 256 260 261 257 247 242 243 242 248 256 256 257 259 257 260 264 260 255 253 252 254 258 259 253 249 247 248 256 257 266
268 265 262 257 255 257 258 256 253 252 250 252 255 256 257 260 258 252 252 248 246 246 252 256 254 253 254 255 256 258 255 252 253 251 253 252 250 247 249 247 249 252 257
266 266 264 260 261 262 266 274 264 254 260 260 261 261 263 263 264 259 257 258 254 247 251 250 250 250 252 254 255 257 255 251 249 246 246 246 245 245 249 249 249 251 257
265 269 267 261 260 262 264 268 278 276 258 259 259 262 262 264 263 259 257 257 251 246 250 250 251 252 253 253 253 255 257 253 247 242 243 243 243 243 245 246 246 250 255
270 269 267 267 264 264 264 265 265 270 278 278 269 263 263 262 262 259 255 253 247 241 244 248 251 252 253 252 252 253 254 253 246 242 240 240 238 239 243 245 244 246 252
276 274 274 273 270 267 265 263 263 265 268 275 280 274 264 264 261 254 247 244 244 245 246 249 251 251 252 251 251 249 248 248 246 243 242 241 239 238 243 245 247 246 251
279 275 275 275 272 269 266 264 264 264 266 268 268 270 270 267 261 252 244 244 245 248 248 249 251 250 249 249 248 246 245 244 241 241 242 242 240 238 241 244 244 247 251
285 282 276 273 268 267 267 265 264 264 265 267 268 265 261 260 257 255 252 249 248 250 250 251 254 251 247 246 245 241 240 242 240 238 239 242 240 239 241 243 245 246 248
282 281 277 273 271 269 269 267 267 266 267 270 274 270 260 259 258 257 256 256 255 254 252 252 254 252 248 244 241 240 240 242 241 237 237 240 239 238 239 240 241 243 244
275 276 276 273 271 271 271 268 266 267 268 270 272 269 262 260 261 260 261 261 259 255 251 248 250 251 249 244 240 238 239 242 239 235 236 240 239 237 236 236 237 242 245
272 272 274 276 276 273 272 271 270 269 270 271 270 268 265 262 263 263 263 262 258 256 253 249 249 249 249 249 245 239 238 238 237 235 236 239 240 239 237 237 240 241 244
274 274 274 274 274 274 274 274 273 273 272 271 270 270 270 268 266 265 263 260 258 257 256 255 252 250 248 245 244 242 241 242 243 241 237 236 235 233 231 233 235 240 239
279 277 276 275 274 274 274 275 276 277 277 277 276 274 273 273 271 269 266 262 261 261 259 257 252 251 251 246 244 242 244 246 247 245 241 233 226 226 223 226 227 230 231
Height
1481 1483 1485 1487 1489 1491 1493 1495 1496 1497 1498 1499 1500 1501 1502 1503 1504 1504 1505 1505 1505 1505 1506 1506 1506 1507 1507 1507 1506 1506 1506 1505 1503 1501 1502 1501 1500 1499 1498 1496 1495 1494 1493
1479 1481 1483 1485 1487 1488 1490 1491 1492 1494 1495 1496 1497 1498 1498 1499 1500 1500 1501 1501 1501 1501 1502 1502 1502 1502 1502 1502 1502 1502 1501 1500 1499 1497 1496 1496 1495 1494 1493 1491 1490 1489 1487
1476 1478 1480 1481 1483 1485 1486 1487 1489 1490 1491 1492 1493 1494 1494 1495 1495 1496 1497 1497 1497 1497 1497 1497 1497 1498 1498 1498 1497 1497 1496 1495 1494 1493 1491 1491 1490 1489 1487 1486 1484 1483 1482
1473 1475 1476 1478 1479 1481 1482 1484 1485 1486 1487 1488 1489 1489 1490 1491 1491 1492 1492 1492 1492 1493 1492 1492 1492 1493 1492 1492 1492 1492 1491 1490 1489 1488 1486 1485 1484 1483 1482 1480 1479 1478 1476
1470 1471 1473 1475 1476 1477 1479 1480 1481 1482 1483 1484 1484 1485 1485 1486 1486 1487 1487 1487 1488 1488 1487 1487 1487 1487 1487 1487 1487 1486 1486 1485 1484 1483 1481 1480 1479 1478 1476 1475 1474 1472 1470
1466 1468 1469 1471 1472 1473 1474 1476 1476 1477 1478 1479 1479 1480 1481 1481 1482 1482 1482 1482 1483 1482 1482 1482 1482 1482 1481 1481 1481 1481 1481 1480 1478 1477 1476 1475 1473 1473 1471 1470 1468 1466 1464
1463 1465 1466 1467 1468 1469 1470 1471 1472 1473 1474 1474 1475 1475 1475 1476 1477 1477 1477 1478 1477 1477 1477 1477 1476 1476 1476 1475 1475 1474 1474 1473 1473 1472 1470 1469 1468 1467 1466 1464 1463 1461 1459
1460 1461 1462 1463 1464 1465 1466 1467 1468 1469 1469 1469 1470 1470 1470 1471 1471 1472 1472 1472 1472 1471 1471 1471 1470 1469 1469 1469 1469 1468 1467 1466 1466 1465 1464 1463 1462 1461 1460 1459 1457 1456 1454
1457 1458 1459 1460 1460 1461 1462 1463 1463 1464 1464 1464 1465 1465 1465 1465 1466 1466 1466 1466 1465 1465 1465 1464 1464 1463 1463 1463 1462 1461 1460 1459 1459 1458 1457 1456 1455 1454 1454 1453 1451 1450 1447
1453 1454 1455 1456 1456 1457 1457 1458 1458 1458 1459 1459 1459 1459 1459 1459 1460 1460 1460 1460 1459 1459 1458 1458 1458 1457 1457 1457 1456 1455 1453 1453 1452 1451 1450 1449 1448 1447 1447 1446 1445 1444 1441
1450 1451 1451 1452 1452 1452 1453 1453 1453 1453 1453 1453 1453 1453 1453 1454 1454 1454 1454 1454 1453 1453 1452 1451 1451 1451 1451 1450 1450 1449 1447 1447 1446 1444 1443 1442 1441 1440 1440 1439 1439 1438 1436
1447 1447 1447 1448 1448 1448 1448 1448 1448 1448 1448 1447 1447 1447 1447 1447 1447 1447 1447 1448 1447 1447 1446 1445 1445 1445 1444 1444 1443 1442 1442 1441 1439 1438 1437 1435 1435 1434 1433 1433 1432 1431 1430
1443 1443 1443 1444 1444 1444 1443 1443 1443 1443 1442 1442 1441 1441 1440 1441 1441 1441 1441 1441 1441 1441 1440 1439 1439 1438 1438 1437 1437 1436 1435 1434 1433 1431 1430 1429 1429 1428 1427 1427 1426 1425 1424
1440 1440 1440 1439 1439 1439 1439 1438 1438 1437 1437 1436 1436 1435 1435 1435 1435 1435 1434 1434 1434 1434 1434 1433 1432 1432 1432 1431 1430 1429 1428 1428 1427 1425 1424 1423 1423 1422 1421 1420 1420 1419 1418
1436 1436 1436 1436 1435 1434 1434 1433 1433 1433 1432 1432 1431 1431 1430 1429 1429 1430 1429 1429 1429 1428 1428 1427 1426 1426 1425 1424 1423 1423 1422 1421 1420 1419 1418 1418 1417 1416 1415 1415 1414 1413 1412
1433 1432 1432 1431 1430 1430 1429 1428 1427 1427 1427 1427 1426 1426 1424 1424 1424 1424 1424 1424 1423 1423 1423 1421 1420 1420 1419 1418 1418 1417 1416 1415 1414 1413 1413 1412 1411 1411 1410 1409 1409 1408 1407
1429 1428 1427 1427 1426 1425 1424 1423 1422 1421 1421 1421 1420 1420 1419 1419 1418 1418 1418 1418 1418 1417 1417 1415 1415 1414 1413 1413 1412 1411 1410 1409 1408 1407 1407 1406 1406 1405 1404 1404 1403 1403 1402
1425 1424 1423 1422 1422 1421 1420 1419 1418 1417 1415 1414 1414 1414 1413 1413 1413 1412 1412 1412 1411 1411 1410 1410 1409 1408 1408 1407 1406 1405 1404 1403 1403 1402 1401 1401 1400 1400 1399 1399 1398 1397 1397
1421 1420 1419 1418 1417 1416 1415 1414 1413 1412 1411 1410 1408 1408 1408 1407 1407 1406 1406 1406 1405 1405 1405 1404 1403 1403 1402 1401 1400 1400 1399 1398 1397 1397 1396 1396 1395 1395 1394 1394 1393 1392 1392
1417 1415 1414 1413 1412 1411 1410 1409 1408 1407 1406 1405 1404 1403 1402 1402 1401 1400 1400 1400 1400 1399 1399 1398 1397 1397 1396 1395 1395 1394 1393 1393 1392 1391 1391 1390 1390 1390 1389 1389 1388 1388 1387
1412 1411 1410 1408 1407 1406 1405 1404 1403 1402 1401 1400 1399 1398 1398 1397 1396 1395 1395 1395 1394 1393 1393 1392 1392 1391 1390 1390 1389 1389 1388 1387 1387 1386 1386 1385 1385 1385 1384 1384 1383 1383 1382
1408 1406 1405 1404 1403 1402 1401 1400 1399 1397 1396 1395 1394 1393 1392 1392 1391 1390 1390 1389 1389 1388 1387 1386 1386 1385 1384 1384 1384 1383 1382 1382 1382 1381 1381 1380 1380 1380 1379 1379 1379 1378 1377
1404 1402 1401 1400 1398 1397 1396 1395 1394 1393 1392 1390 1389 1388 1387 1386 1385 1384 1384 1383 1383 1382 1381 1380 1380 1379 1379 1378 1378 1377 1377 1377 1376 1376 1376 1375 1375 1375 1374 1374 1374 1373 1373
1399 1398 1397 1395 1394 1393 1391 1390 1389 1388 1387 1385 1384 1383 1382 1381 1380 1379 1378 1378 1377 1376 1375 1375 1374 1373 1373 1372 1372 1372 1371 1371 1371 1371 1371 1370 1370 1370 1370 1369 1369 1369 1368
1395 1394 1392 1391 1389 1388 1387 1385 1384 1383 1382 1380 1379 1378 1377 1376 1374 1374 1373 1372 1371 1370 1370 1369 1368 1367 1367 1366 1366 1366 1366 1366 1366 1366 1366 1366 1365 1365 1365 1365 1365 1364 1364
1391 1389 1388 1387 1385 1384 1382 1381 1379 1378 1377 1375 1374 1373 1371 1370 1369 1368 1367 1366 1366 1365 1364 1363 1363 1362 1362 1361 1361 1361 1361 1361 1361 1361 1361 1361 1361 1361 1361 1360 1360 1360 1360